PDT,Max TemperatureF,Mean TemperatureF,Min TemperatureF,Max Dew PointF,MeanDew PointF,Min DewpointF,Max Humidity, Mean Humidity, Min Humidity, Max Sea Level PressureIn, Mean Sea Level PressureIn, Min Sea Level PressureIn, Max VisibilityMiles, Mean VisibilityMiles, Min VisibilityMiles, Max Wind SpeedMPH, Mean Wind SpeedMPH, Max Gust SpeedMPH,PrecipitationIn, CloudCover, Events, WindDirDegrees
2013-3-1,75,56,36,45,41,36,92,61,29,30.43,30.35,30.25,8,6,2,8,2,,0.00,0,,103
2013-3-2,77,59,40,49,43,31,93,58,23,30.27,30.17,30.05,10,6,2,15,3,21,0.00,1,,126
2013-3-3,72,64,55,49,44,37,67,49,31,30.11,30.04,29.99,10,10,7,14,6,17,T,6,Rain,329
2013-3-4,72,59,45,45,43,41,92,63,34,30.14,30.07,30.02,10,10,9,10,7,,0.00,0,,333
2013-3-5,73,57,40,46,40,31,96,62,28,30.07,30.00,29.91,10,9,2,15,5,20,0.00,1,,182
2013-3-6,62,54,45,45,42,37,80,66,51,30.11,30.05,30.00,10,10,7,15,6,30,T,5,Rain,175
2013-3-7,61,54,46,47,43,39,86,68,49,30.00,29.94,29.84,10,10,9,15,4,,0.04,7,Rain,284
2013-3-8,54,49,44,47,45,43,100,86,71,30.07,29.91,29.79,10,9,4,14,6,20,0.45,7,Rain,215
2013-3-9,59,51,42,46,43,38,100,81,61,30.33,30.23,30.09,10,7,2,10,2,,0.00,6,,199
2013-3-10,66,51,36,46,42,37,100,72,44,30.39,30.32,30.26,10,8,4,8,4,10,0.00,0,,110
2013-3-11,70,53,36,50,44,36,100,73,45,30.29,30.23,30.11,10,4,0,8,2,12,0.00,0,Fog,169
2013-3-12,78,59,40,50,45,39,100,67,33,30.17,30.13,30.06,10,4,0,7,2,,0.00,0,Fog,151
2013-3-13,84,64,43,55,48,41,93,62,31,30.20,30.13,30.04,8,3,0,7,2,10,0.00,0,Fog,96
2013-3-14,84,64,46,55,50,45,100,77,32,30.13,30.09,30.05,9,3,0,10,2,,0.00,0,Fog,286
2013-3-15,79,66,52,55,51,47,80,60,40,30.09,30.05,29.99,10,9,6,18,6,21,0.00,0,,325
2013-3-16,80,62,43,52,45,39,100,64,27,30.07,30.01,29.97,10,8,0,21,6,24,0.00,0,Fog,321
2013-3-17,77,64,50,41,38,32,64,43,21,30.11,30.04,30.00,10,10,9,21,8,25,0.00,0,,326
2013-3-18,72,56,39,47,40,36,85,56,27,30.13,30.07,30.03,10,10,10,9,3,14,0.00,0,,275
2013-3-19,76,60,44,49,44,40,86,58,29,30.15,30.09,30.04,10,10,8,29,5,36,T,1,Rain,290
2013-3-20,73,64,54,55,50,48,89,68,47,30.13,30.09,30.04,10,10,10,18,5,23,T,2,Rain,318
2013-3-21,71,61,50,52,45,36,93,62,31,30.07,30.02,29.96,10,10,9,24,11,39,0.00,0,,320
2013-3-22,69,54,39,39,31,23,70,45,20,30.07,30.02,29.98,10,10,10,18,8,23,0.00,0,,322
2013-3-23,70,51,31,39,32,25,75,51,26,30.15,30.09,30.04,10,10,8,10,4,,0.00,0,,330
2013-3-24,75,56,36,43,38,33,92,58,23,30.11,30.04,29.96,10,9,5,8,2,13,0.00,0,,156
2013-3-25,77,59,41,46,42,36,89,58,27,30.01,29.96,29.89,10,8,5,7,2,10,0.00,0,,42
2013-3-26,78,63,48,46,42,35,86,55,23,29.99,29.94,29.88,10,10,8,13,7,,0.00,0,,310
2013-3-27,78,65,51,50,46,42,83,56,29,30.01,29.95,29.91,10,10,9,13,7,16,0.00,1,,321
2013-3-28,71,59,47,52,50,46,93,72,51,30.09,30.05,30.01,10,10,10,8,4,36,T,0,,306
2013-3-29,82,64,45,52,47,42,93,61,28,30.12,30.06,29.99,10,7,0,9,2,,0.00,0,Fog,351
2013-3-30,85,69,52,55,47,43,83,55,26,30.06,30.00,29.92,10,10,9,13,3,,0.00,1,Rain,226
2013-3-31,73,64,54,57,52,45,100,69,38,30.11,30.06,29.99,10,8,3,13,5,16,0.12,4,Rain-Thunderstorm,179